Monterey, CA

11:04 PM PDT on April 23, 2017 (GMT -0700)
Monterey Peninsula

Weather History for KMRY - October, 2010

Change the Weather History Date:

Friday, October 8, 2010

  Actual Average Record
Temperature  
Mean Temperature 59 °F 59 °F  
Max Temperature 68 °F 68 °F 82 °F (1999)
Min Temperature 50 °F 51 °F 45 °F (1948)
Degree Days  
Heating Degree Days 6    
Month to date heating degree days 52  
Since 1 July heating degree days 533  
Cooling Degree Days 0    
Month to date cooling degree days 0  
Year to date cooling degree days 26  
Growing Degree Days 8 (Base 50)    
Moisture  
Dew Point 48 °F    
Average Humidity 74    
Maximum Humidity 89    
Minimum Humidity 58    
Precipitation  
Precipitation 0.00 in - 0.01 in (2004)
Month to date precipitation T  
Year to date precipitation 16.44  
Since 1 July precipitation 0.11  
Sea Level Pressure  
Sea Level Pressure 30.23 in    
Wind  
Wind Speed 4 mph (WNW)    
Max Wind Speed 10 mph    
Max Gust Speed 15 mph    
Visibility 9 miles    
Events      
T = Trace of Precipitation, MM = Missing Value Source: NWS Daily Summary

Daily Weather History Graph

Daily Weather History Graph

Search for Another Location

Airport or City:

Trip Planner

Search our weather history database for the weather conditions in past years. The results will help you decide how hot, cold, wet, or windy it might be!

Date:

Astronomy

Oct. 08, 2010 Rise Set
Actual Time 7:08 AM PDT 6:40 PM PDT
Civil Twilight 6:42 AM PDT 7:06 PM PDT
Nautical Twilight 6:12 AM PDT 7:36 PM PDT
Astronomical Twilight 5:42 AM PDT 8:06 PM PDT
Moon 8:17 AM PDT (10/8) 7:03 PM PDT (10/8)
Length of Visible Light 12h 23m
Length of Day
11h 31m
New Moon, 1% of the Moon is Illuminated
Oct 8
New Moon
Oct 14
First Quarter
Oct 22
Full
Oct 30
Last Quarter
Nov 5
New

Hourly Weather History & Observations

Time (PDT) Temp. Dew Point Humidity Pressure Visibility Wind Dir Wind Speed Gust Speed Precip Events Conditions
12:54 AM 52.0 °F 46.0 °F 80% 30.23 in 10.0 mi East 4.6 mph - N/A   Clear
1:54 AM 52.0 °F 46.9 °F 83% 30.23 in 10.0 mi East 4.6 mph - N/A   Clear
2:54 AM 51.1 °F 46.0 °F 83% 30.22 in 10.0 mi East 4.6 mph - N/A   Clear
3:54 AM 51.1 °F 46.0 °F 83% 30.22 in 10.0 mi East 6.9 mph - N/A   Clear
4:54 AM 51.1 °F 46.0 °F 83% 30.22 in 10.0 mi East 5.8 mph - N/A   Clear
5:54 AM 50.0 °F 45.0 °F 83% 30.22 in 10.0 mi Calm Calm - N/A   Clear
6:54 AM 50.0 °F 45.0 °F 83% 30.22 in 10.0 mi Calm Calm - N/A   Clear
7:54 AM 52.0 °F 48.0 °F 86% 30.22 in 10.0 mi Calm Calm - N/A   Clear
8:54 AM 57.0 °F 48.9 °F 74% 30.24 in 10.0 mi Calm Calm - N/A   Clear
9:54 AM 62.1 °F 50.0 °F 65% 30.25 in 5.0 mi Calm Calm - N/A   Haze
10:43 AM 62.6 °F 50.0 °F 63% 30.22 in 6.0 mi WSW 3.5 mph - N/A   Haze
10:54 AM 64.0 °F 50.0 °F 60% 30.25 in 6.0 mi West 3.5 mph - N/A   Haze
11:21 AM 66.2 °F 51.8 °F 60% 30.21 in 6.0 mi WSW 3.5 mph - N/A   Haze
11:54 AM 64.9 °F 50.0 °F 58% 30.25 in 7.0 mi West 6.9 mph - N/A   Smoke
12:54 PM 64.9 °F 52.0 °F 63% 30.24 in 10.0 mi West 8.1 mph - N/A   Smoke
1:54 PM 63.0 °F 48.9 °F 60% 30.22 in 10.0 mi NW 8.1 mph - N/A   Clear
2:54 PM 66.0 °F 51.1 °F 59% 30.21 in 10.0 mi NW 8.1 mph - N/A   Clear
3:54 PM 63.0 °F 50.0 °F 63% 30.20 in 10.0 mi WNW 8.1 mph - N/A   Clear
4:54 PM 63.0 °F 48.9 °F 60% 30.21 in 10.0 mi WNW 6.9 mph - N/A   Clear
5:54 PM 61.0 °F 46.9 °F 60% 30.22 in 10.0 mi Variable 3.5 mph - N/A   Clear
6:54 PM 60.1 °F 46.9 °F 62% 30.23 in 10.0 mi Calm Calm - N/A   Clear
7:54 PM 57.9 °F 46.9 °F 67% 30.25 in 10.0 mi SSW 4.6 mph - N/A   Clear
8:54 PM 57.9 °F 46.9 °F 67% 30.24 in 10.0 mi SE 4.6 mph - N/A   Clear
9:54 PM 57.9 °F 46.0 °F 65% 30.24 in 10.0 mi Calm Calm - N/A   Clear
10:54 PM 57.0 °F 46.0 °F 67% 30.22 in 10.0 mi NE 3.5 mph - N/A   Clear
11:54 PM 55.0 °F 45.0 °F 69% 30.23 in 10.0 mi NNE 3.5 mph - N/A   Clear